Location: Stilling
(56.0622°N, 9.9882°E)
Time: 00:35:54
(UTC+00:00)

RESURS DK-1 - Pass Details

Date: 13 July 2020
Orbit: 556 x 562 km, 69.9° (Epoch: 03 August)

Event Time Altitude Azimuth Distance (km) Brightness Sun altitude
Rises 22:17:30 0° 320° (NW) 2,758 7.2 -10.9°
Reaches altitude 10° 22:19:47 10° 314° (NW) 1,859 6.0 -11.0°
Maximum altitude 22:23:43 43° 243° (WSW) 795 3.0 -11.2°
Enters shadow 22:26:40 16° 177° (S) 1,487 3.9 -11.3°
